Vorticity
8 9 10 10 9 7 6 6 7 8 6 4 4 5 6 6 6 7 14 12 8 13 7 9 6 2 0 1 1 5 8 8 8 8 9 9 9 9 9 9 10 9 9
9 11 11 13 11 11 8 6 7 7 8 6 7 8 9 9 8 9 12 10 0 3 3 4 8 7 5 5 4 9 9 8 8 10 10 9 9 10 11 9 10 10 11
6 7 6 7 6 6 8 9 8 10 13 13 13 12 9 8 9 9 10 9 7 1 3 -1 2 3 5 4 7 10 8 10 11 10 10 10 8 7 6 6 7 9 10
7 6 7 7 6 9 10 8 5 5 7 6 4 7 10 12 9 8 8 7 8 7 4 2 1 3 5 5 11 8 11 12 10 9 8 6 7 8 9 9 10 11 13
4 5 6 9 11 12 9 11 11 12 10 6 4 6 6 6 9 9 9 10 9 7 8 3 3 6 7 10 10 13 12 10 7 5 8 10 12 13 14 14 13 14 12
8 8 9 9 9 10 12 10 12 12 11 13 12 11 8 8 8 9 8 8 9 7 6 6 7 9 11 11 13 11 8 7 7 8 8 10 7 7 7 12 14 14 15
11 11 10 11 11 12 11 11 12 11 12 12 13 13 12 11 11 11 10 9 9 8 8 9 11 10 11 11 10 7 7 7 8 8 7 7 8 13 12 13 13 15 16
10 11 11 10 9 8 9 10 10 11 10 13 14 13 13 12 11 10 12 12 13 12 12 12 11 12 11 8 7 8 8 7 7 9 9 11 11 14 16 16 15 15 16
12 12 12 11 12 14 13 10 9 8 9 9 9 12 13 14 13 12 12 12 13 13 12 11 11 10 7 6 7 7 6 7 8 10 11 13 13 16 17 16 16 16 13
14 11 9 9 11 11 12 15 16 12 11 9 10 11 13 12 12 12 12 13 15 11 10 9 8 7 6 6 7 6 6 7 10 12 13 15 16 17 13 14 15 11 15
13 13 12 12 11 12 11 8 11 16 15 14 11 9 10 12 11 11 10 10 9 8 8 8 7 7 6 7 7 5 5 9 10 12 14 16 17 13 16 13 7 6 6
6 6 8 9 9 10 13 18 19 12 14 15 15 13 11 13 12 12 11 11 10 9 8 7 5 6 7 7 7 5 6 9 11 12 16 17 14 6 12 11 14 15 6
9 9 8 8 7 6 6 4 10 18 18 16 14 14 14 12 10 12 11 9 9 8 9 7 7 7 7 6 6 6 5 8 8 13 18 14 6 16 6 1 3 7 10
8 11 12 12 12 12 10 7 4 5 11 18 16 14 14 14 11 9 9 12 7 9 10 9 7 6 7 6 5 5 7 10 9 11 18 19 9 9 6 6 8 12 9
12 14 17 18 19 19 19 17 13 6 5 7 19 15 18 13 8 8 4 11 14 6 7 9 13 8 7 7 7 8 7 6 12 6 18 13 8 10 9 9 9 11 9
16 16 15 15 14 15 17 23 18 18 10 7 10 9 17 13 13 -2 29 -2 11 5 13 15 6 9 12 10 10 7 11 2 10 13 17 10 12 8 7 6 8 11 6
14 12 11 9 9 9 9 15 21 23 22 14 7 14 11 13 10 22 -5 14 12 3 8 13 11 14 14 12 10 9 3 17 15 18 13 9 8 5 8 10 9 5 7
10 9 9 9 9 7 8 9 14 23 29 19 19 5 12 18 -4 27 9 10 9 12 17 21 21 12 7 11 15 16 14 18 11 20 13 12 8 10 10 7 3 5 9
9 10 10 12 12 12 12 9 4 17 23 21 25 19 12 5 14 19 14 6 16 11 12 6 12 14 14 12 13 15 17 13 12 21 9 10 7 10 9 4 5 10 6
8 9 11 12 13 15 14 13 4 10 23 13 19 26 13 25 -4 11 18 23 8 8 10 14 11 13 15 14 13 17 14 16 14 20 4 12 8 12 9 3 5 3 2
8 9 10 11 13 13 14 13 8 18 30 10 11 21 24 18 24 8 -3 31 18 6 -0 17 10 18 11 16 17 16 15 16 17 12 26 7 10 7 8 10 3 2 12
11 10 10 14 13 13 15 12 15 20 17 18 5 15 23 21 14 10 19 3 23 17 9 17 12 6 13 12 13 14 14 17 19 2 19 2 10 10 8 0 5 22 16
14 16 5 8 13 10 14 15 16 19 16 21 8 14 22 24 23 1 13 12 7 28 15 16 4 6 13 13 16 17 16 17 15 7 9 13 5 -1 -1 8 20 7 9
17 8 -3 11 9 11 16 12 19 17 21 17 14 15 21 29 19 14 6 16 17 27 13 8 14 8 11 13 18 18 19 17 15 23 13 12 17 27 20 15 5 9 3
19 22 13 10 11 15 15 17 20 18 19 18 14 17 24 30 4 28 3 21 25 20 6 16 16 8 11 12 12 16 18 15 16 15 15 16 16 14 11 10 8 5 6
11 12 5 15 13 13 18 22 22 20 16 19 15 19 26 20 6 28 2 8 16 10 16 9 14 12 6 6 7 7 8 11 14 11 10 10 9 5 5 10 10 5 7
Height
3054 3053 3052 3056 3057 3058 3060 3063 3063 3064 3068 3067 3068 3068 3070 3071 3074 3075 3076 3077 3080 3082 3084 3086 3087 3087 3087 3088 3089 3089 3088 3088 3086 3084 3082 3082 3081 3079 3077 3076 3074 3073 3070
3050 3050 3050 3052 3052 3054 3057 3058 3058 3060 3061 3061 3060 3061 3063 3065 3066 3068 3071 3073 3075 3077 3079 3080 3081 3081 3082 3082 3081 3081 3082 3080 3079 3077 3075 3075 3073 3071 3071 3068 3067 3066 3063
3050 3047 3048 3049 3050 3049 3052 3052 3052 3052 3052 3053 3053 3054 3056 3058 3060 3062 3064 3067 3068 3069 3071 3072 3073 3074 3075 3075 3074 3073 3073 3072 3071 3070 3068 3068 3066 3063 3062 3060 3059 3058 3055
3045 3044 3045 3046 3043 3043 3045 3044 3045 3045 3044 3045 3046 3047 3049 3051 3053 3055 3056 3058 3060 3061 3063 3065 3066 3066 3067 3067 3066 3064 3064 3064 3064 3063 3061 3060 3058 3057 3055 3053 3052 3050 3048
3038 3039 3040 3039 3037 3036 3036 3035 3036 3036 3036 3037 3037 3039 3040 3043 3044 3046 3047 3049 3051 3052 3054 3055 3057 3057 3057 3057 3058 3058 3058 3056 3056 3055 3054 3052 3051 3049 3047 3043 3042 3041 3041
3034 3031 3030 3030 3028 3028 3027 3025 3026 3026 3026 3027 3027 3030 3031 3032 3034 3035 3037 3038 3040 3042 3045 3046 3047 3048 3049 3048 3049 3050 3050 3048 3048 3048 3045 3045 3043 3039 3038 3037 3034 3033 3034
3023 3022 3020 3019 3018 3018 3017 3017 3016 3015 3016 3017 3018 3019 3020 3022 3024 3025 3027 3028 3030 3032 3034 3035 3036 3038 3039 3040 3042 3041 3041 3041 3041 3041 3037 3036 3034 3033 3029 3030 3028 3027 3027
3014 3012 3011 3008 3008 3007 3007 3007 3006 3006 3006 3007 3008 3009 3011 3012 3014 3016 3016 3017 3020 3022 3024 3027 3028 3031 3032 3033 3032 3034 3034 3032 3032 3033 3030 3026 3026 3027 3023 3022 3021 3021 3022
3004 3001 2999 2998 2997 2997 2998 2998 2996 2996 2996 2997 2998 2998 2999 3001 3004 3005 3007 3009 3010 3012 3015 3019 3020 3024 3024 3023 3026 3025 3026 3024 3023 3022 3021 3020 3017 3019 3019 3018 3021 3020 3016
2997 2993 2993 2989 2987 2986 2987 2986 2984 2983 2985 2988 2988 2988 2988 2991 2993 2994 2997 2998 3001 3005 3008 3011 3011 3014 3014 3015 3017 3017 3016 3018 3016 3014 3013 3013 3011 3013 3011 3015 3015 3016 3015
2986 2984 2986 2981 2977 2977 2976 2973 2972 2972 2974 2976 2976 2978 2980 2980 2983 2986 2988 2990 2992 2994 2998 3001 3004 3004 3006 3007 3008 3010 3009 3012 3008 3008 3008 3006 3006 3006 3007 3009 3011 3013 3013
2975 2975 2972 2971 2970 2968 2965 2962 2961 2962 2963 2963 2965 2967 2970 2973 2973 2976 2979 2981 2984 2987 2988 2991 2994 2997 2997 2999 3001 3002 3002 3001 3002 3000 3001 3001 2999 3000 3003 3005 3006 3008 3008
2964 2962 2960 2959 2958 2956 2954 2955 2955 2952 2951 2952 2955 2957 2959 2963 2965 2966 2968 2972 2974 2977 2980 2981 2985 2988 2989 2989 2992 2993 2994 2995 2994 2993 2995 2994 2995 2997 2999 3000 3002 3003 3003
2951 2949 2947 2946 2945 2944 2944 2944 2945 2943 2943 2943 2945 2946 2948 2951 2954 2956 2958 2961 2964 2967 2970 2972 2973 2976 2979 2981 2984 2985 2986 2987 2985 2986 2987 2988 2989 2991 2993 2995 2996 2997 2998
2938 2936 2935 2934 2933 2933 2933 2933 2933 2932 2933 2933 2933 2935 2936 2939 2943 2945 2947 2950 2952 2955 2958 2960 2961 2965 2970 2972 2974 2976 2976 2977 2977 2978 2980 2981 2983 2985 2988 2989 2990 2991 2993
2927 2925 2923 2922 2921 2920 2918 2919 2919 2919 2920 2921 2922 2923 2924 2927 2931 2934 2934 2938 2940 2943 2945 2948 2950 2955 2959 2961 2963 2965 2965 2966 2968 2969 2972 2974 2977 2979 2981 2982 2984 2986 2987
2916 2915 2913 2911 2909 2907 2906 2905 2904 2908 2906 2908 2910 2910 2911 2914 2918 2921 2924 2925 2928 2930 2932 2936 2940 2944 2947 2950 2952 2954 2955 2956 2957 2959 2963 2966 2969 2972 2974 2976 2977 2979 2981
2907 2905 2903 2901 2899 2897 2895 2894 2894 2892 2893 2895 2896 2898 2900 2902 2905 2908 2912 2915 2916 2917 2921 2926 2930 2933 2936 2938 2940 2942 2944 2946 2948 2951 2954 2958 2961 2964 2967 2969 2971 2973 2974
2897 2895 2893 2891 2889 2887 2885 2884 2882 2882 2880 2881 2883 2886 2888 2891 2893 2895 2897 2901 2905 2908 2912 2918 2920 2923 2925 2928 2930 2931 2933 2937 2940 2942 2946 2950 2954 2957 2959 2962 2964 2965 2967
2888 2886 2884 2881 2879 2877 2875 2873 2872 2870 2870 2870 2870 2873 2877 2879 2883 2885 2888 2891 2896 2900 2903 2908 2911 2912 2915 2918 2920 2922 2924 2927 2931 2934 2938 2942 2946 2949 2952 2955 2957 2958 2960
2877 2876 2874 2872 2870 2867 2865 2863 2862 2860 2859 2860 2861 2863 2865 2868 2872 2876 2878 2881 2886 2891 2895 2899 2902 2905 2908 2909 2911 2913 2916 2920 2923 2926 2929 2934 2938 2942 2944 2947 2949 2951 2952
2866 2865 2863 2861 2860 2858 2856 2854 2852 2850 2849 2850 2851 2853 2854 2857 2862 2866 2869 2873 2876 2880 2885 2890 2894 2897 2899 2901 2903 2906 2909 2912 2915 2918 2922 2926 2930 2933 2936 2939 2941 2942 2943
2856 2855 2854 2852 2850 2848 2845 2843 2842 2840 2839 2841 2842 2843 2845 2847 2852 2857 2861 2864 2867 2871 2876 2882 2886 2889 2891 2894 2896 2899 2901 2905 2909 2912 2914 2917 2921 2925 2928 2931 2932 2934 2936
2847 2846 2844 2843 2841 2838 2835 2833 2831 2830 2830 2831 2832 2834 2836 2838 2843 2849 2853 2856 2859 2862 2868 2874 2878 2882 2885 2887 2890 2892 2895 2898 2901 2904 2907 2910 2912 2915 2919 2922 2924 2927 2928
2839 2837 2836 2834 2831 2828 2826 2824 2822 2821 2821 2822 2823 2825 2827 2830 2836 2841 2846 2849 2852 2856 2862 2867 2871 2876 2879 2882 2885 2888 2890 2892 2895 2897 2901 2904 2907 2910 2913 2915 2917 2919 2920
2832 2831 2828 2826 2823 2820 2817 2814 2813 2813 2813 2814 2815 2817 2819 2824 2829 2834 2839 2843 2846 2851 2856 2861 2866 2870 2874 2877 2881 2883 2886 2888 2891 2894 2897 2899 2902 2905 2906 2908 2910 2911 2911